Content
SEND FEEDBACK

Daily
Averages
Monthly
Summary
United Kingdom

LONDON, ENGLAND


Home > Europe > United Kingdom > England
Elevation: 203 feet     Latitude: 51 09N     Longitude: 000 11W

WEATHER
 
SELECT A DAY
Number of Records: 293,611;   Date Range: 7/1/96 - 8/18/14
 
SHARE

PRINT THIS DATA

[ ← Previous Day ]
WEATHER ALMANAC - MARCH 6, 2013
[ Next Day → ]
[ °C ]   °F
Weather ElementAverageHighLow
Temperature49.2 °F59 °F (1:50 pm)41 °F (12:50 am)
Dewpoint41.5 °F44.6 °F (12:50 pm)35.6 °F (12:50 am)
Humidity75.3 %87 % (4:20 am)59 % (1:20 pm)
Barometer29.53 in29.56 in (12:50 am)29.50 in (2:20 pm)
Wind Speed5.2 mph9.2 mph (6:20 pm)
Weather ElementAverage
Visibility4.8 mi
Wind DirectionENE (68.7 °)

Weather ElementTotal
Precipitation---
Heating Degree Days15 (Base 65)
Averaged from 47 records on March 6, 2013
WEATHER CONDITIONS BREAKOUT
WIND DIRECTION BREAKOUT
WEATHER BY HOUR - MARCH 6, 2013
[ °C ]   °F
Local TimeTemperatureDewpointHumidityBarometerVisibilityWind DirectionWind SpeedGust SpeedPrecipitationEventsConditions
12:50 AM41.0 °F35.6 °F81 %29.56 in5.0 miENE (60°)4.6 mph
1:20 AM42.8 °F37.4 °F81 %29.56 in4.3 miEast (80°)2.3 mph
1:50 AM42.8 °F37.4 °F81 %29.56 in4.3 miVariable2.3 mph
2:20 AM42.8 °F37.4 °F81 %29.56 in4.3 miENE (70°)3.5 mph
2:50 AM42.8 °F37.4 °F81 %29.56 in4.3 miENE (60°)3.5 mph
3:20 AM42.8 °F37.4 °F81 %29.56 in3.7 miEast (80°)3.5 mph
3:50 AM42.8 °F37.4 °F81 %29.56 in3.7 miEast (80°)3.5 mph
4:20 AM42.8 °F39.2 °F87 %29.56 in3.7 miEast (80°)4.6 mph
4:50 AM42.8 °F37.4 °F81 %29.53 in4.3 miVariable2.3 mph
5:20 AM42.8 °F37.4 °F81 %29.53 in3.7 miENE (70°)2.3 mph
5:50 AM42.8 °F39.2 °F87 %29.53 in3.7 miEast (80°)3.5 mph
6:20 AM44.6 °F39.2 °F81 %29.53 in3.7 miEast (90°)4.6 mph
6:50 AM42.8 °F39.2 °F87 %29.53 in3.7 miEast (80°)3.5 mph
7:20 AM44.6 °F39.2 °F81 %29.56 in5.0 miEast (80°)3.5 mph
7:50 AM46.4 °F41.0 °F81 %29.56 in5.0 miEast (90°)3.5 mph
8:20 AM46.4 °F41.0 °F81 %29.56 in4.3 miVariable3.5 mph
8:50 AM48.2 °F41.0 °F76 %29.56 in5.0 miEast (100°)3.5 mph
9:20 AM48.2 °F41.0 °F76 %29.56 in5.0 miENE (60°)5.8 mph
9:50 AM50.0 °F41.0 °F71 %29.56 in5.6 miENE (60°)6.9 mph
10:20 AM51.8 °F41.0 °F67 %29.53 in5.0 miNE (50°)8.1 mph
10:50 AM51.8 °F42.8 °F71 %29.53 in5.0 miENE (70°)6.9 mph
11:20 AM53.6 °F42.8 °F67 %29.53 in5.6 miENE (70°)5.8 mphMostly Cloudy
11:50 AM53.6 °F42.8 °F67 %29.53 in6.2 miEast (90°)5.8 mphMostly Cloudy
12:20 PM55.4 °F42.8 °F63 %29.53 in6.2 miEast (90°)4.6 mphScattered Clouds
12:50 PM57.2 °F44.6 °F63 %29.53 in5.6 miENE (60°)6.9 mph
1:20 PM57.2 °F42.8 °F59 %29.53 inEast (80°)6.9 mphClear
1:50 PM59.0 °F44.6 °F59 %29.53 inEast (90°)5.8 mphClear
2:20 PM59.0 °F44.6 °F59 %29.50 inEast (100°)4.6 mphClear
2:50 PM59.0 °F44.6 °F59 %29.50 inESE (120°)5.8 mphClear
3:20 PM57.2 °F44.6 °F63 %29.50 in6.2 miVariable3.5 mphMostly Cloudy
3:50 PM57.2 °F44.6 °F63 %29.50 inVariable3.5 mphClear
4:20 PM55.4 °F44.6 °F67 %29.50 inENE (60°)8.1 mphClear
4:50 PM53.6 °F44.6 °F72 %29.50 inENE (70°)6.9 mphClear
5:20 PM53.6 °F44.6 °F72 %29.50 in6.2 miEast (80°)6.9 mphPartly Cloudy
5:50 PM53.6 °F42.8 °F67 %29.50 inENE (70°)8.1 mphClear
6:20 PM53.6 °F42.8 °F67 %29.50 in5.6 miEast (80°)9.2 mph
6:50 PM51.8 °F42.8 °F71 %29.50 in5.6 miEast (80°)9.2 mphRainLight Rain
7:20 PM51.8 °F42.8 °F71 %29.53 in5.6 miENE (70°)9.2 mphRainLight Rain
7:50 PM50.0 °F42.8 °F76 %29.53 in4.3 miEast (80°)6.9 mphRainLight Rain
8:20 PM48.2 °F42.8 °F82 %29.53 in5.0 miENE (70°)8.1 mphRainLight Rain
8:50 PM48.2 °F42.8 °F82 %29.53 in5.6 miENE (70°)6.9 mphRainLight Rain
9:20 PM48.2 °F42.8 °F82 %29.53 in5.0 miEast (80°)4.6 mphRainLight Rain
9:50 PM46.4 °F42.8 °F87 %29.53 in5.0 miENE (70°)3.5 mphRainLight Rain
10:20 PM46.4 °F42.8 °F87 %29.53 in5.0 miENE (70°)4.6 mphRainLight Rain
10:50 PM46.4 °F42.8 °F87 %29.50 in5.0 miEast (80°)3.5 mphRainLight Rain
11:20 PM46.4 °F42.8 °F87 %29.50 in4.3 miEast (80°)4.6 mph
11:50 PM46.4 °F42.8 °F87 %29.50 in3.7 miEast (80°)3.5 mph
Hourly data recorded from EGKK, located miles away from London, England







STORIES FROM OUR PARTNERS